| time (UTC) | temp F | wind direction | speed MPH | gust MPH | rain 1hr in | rain 24hr in | rain mn in | humidity % | barometer mb |
| 20260509232854 | 75 | 249 | 0.0 | 0.0 | 0.00 | 0.00 | 0.00 | 18 | 1011.6 |
| 20260509231350 | 76 | 249 | 0.0 | 0.0 | 0.00 | 0.00 | 0.00 | 15 | 1011.6 |
| 20260509225845 | 76 | 249 | 0.0 | 0.0 | 0.00 | 0.00 | 0.00 | 15 | 1011.6 |
| 20260509222828 | 78 | 249 | 0.0 | 4.0 | 0.00 | 0.00 | 0.00 | 15 | 1011.6 |
| 20260509222328 | 79 | 267 | 0.0 | 0.0 | 0.00 | 0.00 | 0.00 | 15 | 1011.6 |
| 20260509221824 | 79 | 267 | 0.0 | 3.0 | 0.00 | 0.00 | 0.00 | 15 | 1011.6 |
| 20260509221324 | 78 | 267 | 0.0 | 6.0 | 0.00 | 0.00 | 0.00 | 15 | 1011.6 |
| 20260509220825 | 78 | 267 | 3.0 | 3.0 | 0.00 | 0.00 | 0.00 | 15 | 1011.6 |
| 20260509220320 | 78 | 318 | 0.0 | 4.0 | 0.00 | 0.00 | 0.00 | 15 | 1011.6 |
| 20260509215821 | 79 | 318 | 0.0 | 4.0 | 0.00 | 0.00 | 0.00 | 15 | 1011.6 |
| 20260509214817 | 79 | 318 | 0.0 | 3.0 | 0.00 | 0.00 | 0.00 | 14 | 1011.6 |
| 20260509213812 | 79 | 318 | 0.0 | 4.0 | 0.00 | 0.00 | 0.00 | 14 | 1011.6 |
| 20260509213307 | 80 | 318 | 0.0 | 4.0 | 0.00 | 0.00 | 0.00 | 14 | 1011.6 |
| 20260509211305 | 79 | 309 | 4.0 | 5.0 | 0.00 | 0.00 | 0.00 | 15 | 1011.6 |
| 20260509210803 | 79 | 341 | 4.0 | 4.0 | 0.00 | 0.00 | 0.00 | 15 | 1011.6 |
| 20260509205254 | 79 | 149 | 3.0 | 4.0 | 0.00 | 0.00 | 0.00 | 15 | 1011.6 |
| 20260509202736 | 79 | 328 | 4.0 | 6.0 | 0.00 | 0.00 | 0.00 | 15 | 1011.6 |
| 20260509202234 | 79 | 347 | 4.0 | 5.0 | 0.00 | 0.00 | 0.00 | 15 | 1011.6 |
| 20260509201729 | 80 | 327 | 3.0 | 6.0 | 0.00 | 0.00 | 0.00 | 14 | 1011.6 |
| 20260509201229 | 81 | 139 | 3.0 | 3.0 | 0.00 | 0.00 | 0.00 | 14 | 1011.6 |
| 20260509200225 | 81 | 198 | 0.0 | 6.0 | 0.00 | 0.00 | 0.00 | 14 | 1011.6 |
| 20260509195724 | 81 | 264 | 4.0 | 6.0 | 0.00 | 0.00 | 0.00 | 14 | 1011.6 |
| 20260509195220 | 80 | 250 | 4.0 | 5.0 | 0.00 | 0.00 | 0.00 | 14 | 1011.6 |
| 20260509194715 | 79 | 351 | 0.0 | 4.0 | 0.00 | 0.00 | 0.00 | 15 | 1011.6 |
| 20260509194215 | 79 | 351 | 0.0 | 5.0 | 0.00 | 0.00 | 0.00 | 15 | 1011.6 |
| 20260509193716 | 79 | 186 | 3.0 | 4.0 | 0.00 | 0.00 | 0.00 | 15 | 1011.6 |
| 20260509193204 | 79 | 251 | 0.0 | 5.0 | 0.00 | 0.00 | 0.00 | 15 | 1011.6 |
| 20260509192704 | 78 | 251 | 4.0 | 4.0 | 0.00 | 0.00 | 0.00 | 15 | 1011.6 |
| 20260509192203 | 78 | 329 | 4.0 | 4.0 | 0.00 | 0.00 | 0.00 | 15 | 1011.6 |
| 20260509191658 | 78 | 329 | 3.0 | 4.0 | 0.00 | 0.00 | 0.00 | 15 | 1011.6 |
| 20260509191158 | 78 | 303 | 0.0 | 4.0 | 0.00 | 0.00 | 0.00 | 15 | 1011.6 |
| 20260509190659 | 78 | 250 | 3.0 | 5.0 | 0.00 | 0.00 | 0.00 | 15 | 1011.6 |
| 20260509190154 | 78 | 234 | 4.0 | 7.0 | 0.00 | 0.00 | 0.00 | 15 | 1011.6 |
| 20260509185655 | 78 | 328 | 4.0 | 6.0 | 0.00 | 0.00 | 0.00 | 15 | 1011.6 |
| 20260509185155 | 78 | 259 | 4.0 | 6.0 | 0.00 | 0.00 | 0.00 | 15 | 1012.6 |
| 20260509184650 | 78 | 258 | 4.0 | 5.0 | 0.00 | 0.00 | 0.00 | 15 | 1012.6 |
| 20260509184150 | 78 | 229 | 4.0 | 6.0 | 0.00 | 0.00 | 0.00 | 15 | 1012.6 |
| 20260509183650 | 78 | 246 | 3.0 | 4.0 | 0.00 | 0.00 | 0.00 | 15 | 1012.6 |
| 20260509182648 | 77 | 318 | 0.0 | 5.0 | 0.00 | 0.00 | 0.00 | 15 | 1012.6 |
| 20260509182149 | 77 | 166 | 0.0 | 5.0 | 0.00 | 0.00 | 0.00 | 15 | 1012.6 |
| 20260509181646 | 76 | 48 | 3.0 | 5.0 | 0.00 | 0.00 | 0.00 | 15 | 1012.6 |
| 20260509174607 | 77 | 259 | 3.0 | 4.0 | 0.00 | 0.00 | 0.00 | 15 | 1012.6 |
| 20260509174108 | 76 | 235 | 0.0 | 5.0 | 0.00 | 0.00 | 0.00 | 15 | 1012.6 |
| 20260509173104 | 76 | 269 | 4.0 | 5.0 | 0.00 | 0.00 | 0.00 | 15 | 1012.6 |
| 20260509172555 | 75 | 309 | 0.0 | 4.0 | 0.00 | 0.00 | 0.00 | 15 | 1012.6 |
| 20260509172055 | 74 | 267 | 3.0 | 5.0 | 0.00 | 0.00 | 0.00 | 15 | 1012.6 |
| 20260509171553 | 74 | 309 | 3.0 | 5.0 | 0.00 | 0.00 | 0.00 | 16 | 1012.6 |
| 20260509171053 | 74 | 258 | 3.0 | 6.0 | 0.00 | 0.00 | 0.00 | 16 | 1012.6 |
| 20260509170553 | 74 | 237 | 3.0 | 8.0 | 0.00 | 0.00 | 0.00 | 16 | 1012.6 |
| 20260509165543 | 73 | 127 | 4.0 | 5.0 | 0.00 | 0.00 | 0.00 | 16 | 1012.6 |
| 20260509164537 | 73 | 122 | 3.0 | 6.0 | 0.00 | 0.00 | 0.00 | 16 | 1012.6 |
| 20260509164036 | 74 | 330 | 5.0 | 6.0 | 0.00 | 0.00 | 0.00 | 16 | 1012.6 |
| 20260509163536 | 73 | 318 | 4.0 | 7.0 | 0.00 | 0.00 | 0.00 | 16 | 1012.6 |
| 20260509163034 | 74 | 241 | 6.0 | 10.0 | 0.00 | 0.00 | 0.00 | 16 | 1012.6 |
| 20260509162533 | 74 | 332 | 5.0 | 6.0 | 0.00 | 0.00 | 0.00 | 16 | 1012.6 |
| 20260509162033 | 73 | 201 | 3.0 | 5.0 | 0.00 | 0.00 | 0.00 | 18 | 1012.6 |
| 20260509161528 | 73 | 133 | 3.0 | 7.0 | 0.00 | 0.00 | 0.00 | 18 | 1012.6 |
| 20260509161028 | 72 | 248 | 3.0 | 7.0 | 0.00 | 0.00 | 0.00 | 18 | 1012.6 |
| 20260509160529 | 72 | 154 | 5.0 | 5.0 | 0.00 | 0.00 | 0.00 | 19 | 1013.6 |
| 20260509155027 | 71 | 247 | 0.0 | 7.0 | 0.00 | 0.00 | 0.00 | 19 | 1013.6 |
| 20260509154523 | 71 | 270 | 3.0 | 6.0 | 0.00 | 0.00 | 0.00 | 21 | 1013.6 |
| 20260509153524 | 70 | 208 | 0.0 | 10.0 | 0.00 | 0.00 | 0.00 | 22 | 1012.6 |
| 20260509153021 | 70 | 243 | 4.0 | 8.0 | 0.00 | 0.00 | 0.00 | 22 | 1012.6 |
| 20260509152522 | 69 | 147 | 4.0 | 5.0 | 0.00 | 0.00 | 0.00 | 22 | 1012.6 |
| 20260509152022 | 68 | 256 | 3.0 | 5.0 | 0.00 | 0.00 | 0.00 | 22 | 1012.6 |
| 20260509151518 | 68 | 256 | 4.0 | 6.0 | 0.00 | 0.00 | 0.00 | 22 | 1012.6 |
| 20260509151018 | 69 | 233 | 4.0 | 4.0 | 0.00 | 0.00 | 0.00 | 22 | 1012.6 |
| 20260509150509 | 69 | 243 | 4.0 | 7.0 | 0.00 | 0.00 | 0.00 | 22 | 1012.6 |
| 20260509145904 | 69 | 143 | 3.0 | 7.0 | 0.00 | 0.00 | 0.00 | 23 | 1012.6 |
| 20260509145405 | 69 | 253 | 5.0 | 5.0 | 0.00 | 0.00 | 0.00 | 24 | 1012.6 |
| 20260509144905 | 67 | 219 | 3.0 | 4.0 | 0.00 | 0.00 | 0.00 | 27 | 1012.6 |
| 20260509142354 | 66 | 286 | 4.0 | 6.0 | 0.00 | 0.00 | 0.00 | 33 | 1012.6 |
| 20260509140826 | 64 | 247 | 3.0 | 7.0 | 0.00 | 0.00 | 0.00 | 34 | 1012.6 |
| 20260509140324 | 64 | 262 | 4.0 | 6.0 | 0.00 | 0.00 | 0.00 | 34 | 1012.6 |
| 20260509135319 | 64 | 257 | 0.0 | 5.0 | 0.00 | 0.00 | 0.00 | 35 | 1012.6 |
| 20260509134818 | 64 | 256 | 4.0 | 4.0 | 0.00 | 0.00 | 0.00 | 36 | 1012.6 |
| 20260509133307 | 63 | 256 | 3.0 | 5.0 | 0.00 | 0.00 | 0.00 | 39 | 1012.6 |
| 20260509131258 | 62 | 246 | 3.0 | 5.0 | 0.00 | 0.00 | 0.00 | 46 | 1012.6 |
| 20260509130740 | 62 | 187 | 0.0 | 3.0 | 0.00 | 0.00 | 0.00 | 47 | 1012.6 |
| 20260509125738 | 61 | 187 | 0.0 | 4.0 | 0.00 | 0.00 | 0.00 | 48 | 1012.6 |
| 20260509124739 | 61 | 258 | 0.0 | 5.0 | 0.00 | 0.00 | 0.00 | 49 | 1012.6 |
| 20260509123736 | 61 | 246 | 0.0 | 5.0 | 0.00 | 0.00 | 0.00 | 50 | 1012.6 |
| 20260509123231 | 60 | 230 | 0.0 | 4.0 | 0.00 | 0.00 | 0.00 | 50 | 1012.6 |
| 20260509122727 | 60 | 230 | 0.0 | 0.0 | 0.00 | 0.00 | 0.00 | 51 | 1012.6 |
| 20260509122223 | 60 | 230 | 0.0 | 3.0 | 0.00 | 0.00 | 0.00 | 51 | 1012.6 |
| 20260509121721 | 60 | 230 | 0.0 | 4.0 | 0.00 | 0.00 | 0.00 | 51 | 1012.6 |
| 20260509115712 | 59 | 249 | 0.0 | 5.0 | 0.00 | 0.00 | 0.00 | 51 | 1012.6 |
| 20260509115213 | 59 | 249 | 4.0 | 5.0 | 0.00 | 0.00 | 0.00 | 51 | 1012.6 |
| 20260509114709 | 59 | 249 | 0.0 | 5.0 | 0.00 | 0.00 | 0.00 | 50 | 1012.6 |
| 20260509114206 | 59 | 249 | 3.0 | 0.0 | 0.00 | 0.00 | 0.00 | 50 | 1012.6 |
| 20260509111650 | 59 | 249 | 0.0 | 0.0 | 0.00 | 0.00 | 0.00 | 50 | 1011.6 |
| 20260509110142 | 58 | 249 | 0.0 | 0.0 | 0.00 | 0.00 | 0.00 | 49 | 1011.6 |
| 20260509105639 | 58 | 249 | 0.0 | 0.0 | 0.00 | 0.00 | 0.00 | 49 | 1011.6 |
| 20260509103626 | 58 | 249 | 0.0 | 0.0 | 0.00 | 0.00 | 0.00 | 49 | 1011.6 |
| 20260509103126 | 58 | 249 | 0.0 | 0.0 | 0.00 | 0.00 | 0.00 | 48 | 1011.6 |
| 20260509102122 | 58 | 249 | 3.0 | 4.0 | 0.00 | 0.00 | 0.00 | 48 | 1011.6 |
| 20260509100619 | 58 | 247 | 0.0 | 5.0 | 0.00 | 0.00 | 0.00 | 47 | 1010.6 |
| 20260509100120 | 58 | 166 | 0.0 | 0.0 | 0.00 | 0.00 | 0.00 | 47 | 1010.6 |
| 20260509095115 | 58 | 166 | 0.0 | 0.0 | 0.00 | 0.00 | 0.00 | 47 | 1011.6 |
| 20260509094113 | 57 | 166 | 0.0 | 0.0 | 0.00 | 0.00 | 0.00 | 47 | 1011.6 |
| 20260509093114 | 57 | 166 | 0.0 | 0.0 | 0.00 | 0.00 | 0.00 | 47 | 1011.6 |
| 20260509091107 | 57 | 166 | 3.0 | 0.0 | 0.00 | 0.00 | 0.00 | 45 | 1011.6 |
| 20260509090609 | 57 | 166 | 0.0 | 0.0 | 0.00 | 0.00 | 0.00 | 45 | 1011.6 |
| 20260509085605 | 57 | 166 | 0.0 | 0.0 | 0.00 | 0.00 | 0.00 | 45 | 1011.6 |
| 20260509085105 | 56 | 166 | 0.0 | 0.0 | 0.00 | 0.00 | 0.00 | 45 | 1011.6 |
| 20260509084606 | 56 | 166 | 0.0 | 0.0 | 0.00 | 0.00 | 0.00 | 45 | 1011.6 |
| 20260509084102 | 56 | 166 | 0.0 | 0.0 | 0.00 | 0.00 | 0.00 | 45 | 1011.6 |
| 20260509082557 | 57 | 166 | 0.0 | 4.0 | 0.00 | 0.00 | 0.00 | 43 | 1011.6 |
| 20260509082057 | 57 | 166 | 0.0 | 0.0 | 0.00 | 0.00 | 0.00 | 44 | 1012.6 |
| 20260509081558 | 57 | 166 | 0.0 | 3.0 | 0.00 | 0.00 | 0.00 | 44 | 1012.6 |
| 20260509081053 | 57 | 166 | 0.0 | 5.0 | 0.00 | 0.00 | 0.00 | 44 | 1012.6 |
| 20260509075548 | 57 | 166 | 0.0 | 0.0 | 0.00 | 0.00 | 0.00 | 44 | 1011.6 |
| 20260509074038 | 56 | 166 | 0.0 | 0.0 | 0.00 | 0.00 | 0.00 | 43 | 1012.6 |
| 20260509073538 | 56 | 166 | 0.0 | 0.0 | 0.00 | 0.00 | 0.00 | 43 | 1011.6 |
| 20260509073036 | 56 | 166 | 0.0 | 0.0 | 0.00 | 0.00 | 0.00 | 43 | 1011.6 |
| 20260509072533 | 56 | 166 | 0.0 | 0.0 | 0.00 | 0.00 | 0.00 | 43 | 1011.6 |
| 20260509072034 | 56 | 166 | 0.0 | 0.0 | 0.00 | 0.00 | 0.00 | 43 | 1011.6 |
| 20260509071533 | 56 | 166 | 0.0 | 0.0 | 0.00 | 0.00 | 0.00 | 43 | 1011.6 |
| 20260509071028 | 56 | 166 | 0.0 | 0.0 | 0.00 | 0.00 | 0.00 | 43 | 1011.6 |
| 20260509070529 | 56 | 166 | 0.0 | 0.0 | 0.00 | 0.00 | 0.00 | 43 | 1011.6 |
| 20260509070029 | 55 | 166 | 0.0 | 0.0 | 0.00 | 0.00 | 0.00 | 43 | 1011.6 |
| 20260509063021 | 54 | 166 | 0.0 | 0.0 | 0.00 | 0.00 | 0.00 | 42 | 1012.6 |
| 20260509062019 | 53 | 166 | 0.0 | 0.0 | 0.00 | 0.00 | 0.00 | 41 | 1011.6 |
| 20260509060517 | 54 | 166 | 0.0 | 0.0 | 0.00 | 0.00 | 0.00 | 40 | 1011.6 |
| 20260509060018 | 54 | 166 | 0.0 | 0.0 | 0.00 | 0.00 | 0.00 | 39 | 1011.6 |
| 20260509055514 | 54 | 166 | 0.0 | 0.0 | 0.00 | 0.00 | 0.00 | 39 | 1011.6 |
| 20260509055017 | 54 | 166 | 0.0 | 0.0 | 0.00 | 0.00 | 0.00 | 39 | 1011.6 |
| 20260509054515 | 54 | 166 | 0.0 | 0.0 | 0.00 | 0.00 | 0.00 | 39 | 1011.6 |
| 20260509054011 | 54 | 166 | 0.0 | 0.0 | 0.00 | 0.00 | 0.00 | 39 | 1011.6 |
| 20260509052506 | 54 | 166 | 0.0 | 0.0 | 0.00 | 0.00 | 0.00 | 38 | 1012.6 |
| 20260509052005 | 54 | 166 | 0.0 | 0.0 | 0.00 | 0.00 | 0.00 | 38 | 1012.6 |
| 20260509051505 | 54 | 166 | 0.0 | 0.0 | 0.00 | 0.00 | 0.00 | 37 | 1012.6 |
| 20260509051004 | 54 | 166 | 0.0 | 0.0 | 0.00 | 0.00 | 0.00 | 37 | 1012.6 |
| 20260509045455 | 54 | 166 | 0.0 | 0.0 | 0.00 | 0.00 | 0.00 | 36 | 1012.6 |
| 20260509043949 | 55 | 166 | 0.0 | 0.0 | 0.00 | 0.00 | 0.00 | 36 | 1012.6 |
| 20260509043447 | 55 | 166 | 0.0 | 0.0 | 0.00 | 0.00 | 0.00 | 35 | 1012.6 |
| 20260509042948 | 55 | 166 | 0.0 | 0.0 | 0.00 | 0.00 | 0.00 | 35 | 1012.6 |
| 20260509035944 | 55 | 166 | 0.0 | 0.0 | 0.00 | 0.00 | 0.00 | 34 | 1012.6 |
| 20260509035441 | 55 | 166 | 0.0 | 0.0 | 0.00 | 0.00 | 0.00 | 33 | 1012.6 |
| 20260509034942 | 56 | 166 | 0.0 | 0.0 | 0.00 | 0.00 | 0.00 | 32 | 1012.6 |
| 20260509034442 | 56 | 166 | 0.0 | 0.0 | 0.00 | 0.00 | 0.00 | 32 | 1012.6 |
| 20260509033936 | 56 | 166 | 0.0 | 0.0 | 0.00 | 0.00 | 0.00 | 31 | 1012.6 |
| 20260509033438 | 56 | 166 | 0.0 | 0.0 | 0.00 | 0.00 | 0.00 | 31 | 1012.6 |
| 20260509032433 | 56 | 166 | 0.0 | 0.0 | 0.00 | 0.00 | 0.00 | 29 | 1012.6 |
| 20260509030430 | 57 | 166 | 0.0 | 0.0 | 0.00 | 0.00 | 0.00 | 28 | 1013.6 |
| 20260509025931 | 57 | 166 | 0.0 | 0.0 | 0.00 | 0.00 | 0.00 | 28 | 1013.6 |
| 20260509025426 | 57 | 166 | 0.0 | 0.0 | 0.00 | 0.00 | 0.00 | 27 | 1013.6 |
| 20260509023921 | 58 | 166 | 0.0 | 0.0 | 0.00 | 0.00 | 0.00 | 26 | 1013.6 |
| 20260509022922 | 58 | 166 | 0.0 | 0.0 | 0.00 | 0.00 | 0.00 | 26 | 1012.6 |
| 20260509021920 | 58 | 166 | 0.0 | 0.0 | 0.00 | 0.00 | 0.00 | 25 | 1013.6 |
| 20260509020916 | 59 | 166 | 0.0 | 0.0 | 0.00 | 0.00 | 0.00 | 24 | 1013.6 |
| 20260509015412 | 60 | 166 | 0.0 | 0.0 | 0.00 | 0.00 | 0.00 | 24 | 1013.6 |
| 20260509013909 | 60 | 166 | 0.0 | 0.0 | 0.00 | 0.00 | 0.00 | 21 | 1012.6 |
| 20260509013410 | 61 | 166 | 0.0 | 0.0 | 0.00 | 0.00 | 0.00 | 21 | 1012.6 |
| 20260509012910 | 61 | 166 | 0.0 | 0.0 | 0.00 | 0.00 | 0.00 | 21 | 1012.6 |
| 20260509012408 | 62 | 166 | 0.0 | 0.0 | 0.00 | 0.00 | 0.00 | 18 | 1012.6 |
| 20260509011408 | 63 | 166 | 0.0 | 0.0 | 0.00 | 0.00 | 0.00 | 18 | 1012.6 |
| 20260509004904 | 64 | 166 | 3.0 | 4.0 | 0.00 | 0.00 | 0.00 | 18 | 1013.6 |
| 20260509004404 | 65 | 159 | 0.0 | 0.0 | 0.00 | 0.00 | 0.00 | 18 | 1013.6 |
| 20260509002902 | 66 | 159 | 0.0 | 0.0 | 0.00 | 0.00 | 0.00 | 17 | 1012.6 |
| 20260509002356 | 66 | 159 | 0.0 | 0.0 | 0.00 | 0.00 | 0.00 | 17 | 1012.6 |
| 20260509000355 | 66 | 158 | 0.0 | 6.0 | 0.00 | 0.00 | 0.00 | 17 | 1012.6 |
| 20260508235853 | 67 | 159 | 0.0 | 4.0 | 0.00 | 0.00 | 0.00 | 17 | 1012.6 |
| 20260508234851 | 67 | 199 | 0.0 | 0.0 | 0.00 | 0.00 | 0.00 | 17 | 1012.6 |
| 20260508234352 | 68 | 199 | 0.0 | 0.0 | 0.00 | 0.00 | 0.00 | 17 | 1012.6 |